Regional Weather Roundup
Issued by NWS New Orleans/Baton Rouge, LA

Home | Current Version | Previous Version | Text Only | Print | Product List | Glossary On
Versions: 1 2 3 4 5 6 7 8 9 10 11 12 13 14 15 16 17 18 19 20 21 22 23 24 25 26 27 28 29 30 31 32 33 34 35 36 37 38 39 40 41 42 43 44 45 46 47 48 49 50
000
ASUS44 KLIX 012311
RWRLIX
NEW ORLEANS REGIONAL WEATHER ROUNDUP
NATIONAL WEATHER SERVICE NEW ORLEANS LA
600 PM CDT TUE SEP 01 2015

NOTE: "FAIR" INDICATES FEW OR NO CLOUDS BELOW 12,000 FEET WITH NO
      SIGNIFICANT WEATHER AND/OR OBSTRUCTIONS TO VISIBILITY.
      SKY/WX - SKY CONDITION AND SIGNIFICANT WEATHER.
      TMP - AIR TEMPERATURE.     DP    - DEWPOINT TEMPERATURE.
      RH  - RELATIVE HUMIDITY.   PRES  - PRESSURE.
      HI  - HEAT INDEX.          WCI   - WIND CHILL INDEX.

*  THESE STATIONS ARE NOT NWS OR FAA STATIONS AND ARE NOT UNDER
   NWS QUALITY CONTROL.

LAZ038-040-048-061>063-065>067-069-020000-
SOUTHEAST LOUISIANA

CITY           SKY/WX    TMP DP  RH WIND       PRES   REMARKS
N.O. AUDUBON   NOT AVBL
N.O. INTL ARPT PTSUNNY   87  69  54 S12       30.01F
N.O. LAKEFRONT MOSUNNY   87  68  52 SE8       30.03F
N.O. DOWNTOWN*   N/A     90  68  48 SE6       30.03S
RESERVE*         N/A     88  72  60 E6        30.02S HX  95
SLIDELL        MOSUNNY   88  72  58 SE7       30.02F
BATON ROUGE    PTSUNNY   89  63  41 E6        30.01F
BOOTHVILLE     MOSUNNY   87  73  62 E8        30.03F
BELLE CHASSE   PTSUNNY   86  72  62 SE8       30.02F
BOGALUSA*      NOT AVBL
GALLIANO*      PTCLDY    87  69  53 S7        30.02F
NEW ROADS*       N/A     86  69  56 S5        30.02R
GONZALES*        N/A     88  68  50 CALM      30.00F
HAMMOND*       MOSUNNY   90  63  40 S7        30.03F
HOUMA*         NOT AVBL
PORT FOURCHON* CLEAR     86  73  66 E7        30.03S

$$

MSZ070-080>082-020000-
SOUTHERN MISSISSIPPI

CITY           SKY/WX    TMP DP  RH WIND       PRES   REMARKS
MCCOMB         MOSUNNY   91  65  41 SE6       30.01F
GULFPORT       MOSUNNY   87  70  56 SW6       30.02F
BILOXI         PTSUNNY   87  71  58 SW9       30.02F
PASCAGOULA     MOSUNNY   84  71  65 SW5       30.03S
STENNIS ARPT*  SUNNY     88  63  42 S7        30.03F

$$

COASTAL OBSERVATIONS
LAKE AND NEARSHORE STATIONS

STATION/POSITION TIME  TEMP    WIND        PRES    WAVE
                       AIR SEA DIR/SP/G            HT/PER
                 (UTC) (F)     (DEG/KT/KT) (MB)    (FT/S)
PASCAGOULA       2200   88     220/  8/ 10 1016.6
WAVELAND YACHT   2200   85 85  190/  8/ 11 1017.6
GRAND ISLE       2200   87 87  150/  3/  6 1017.4
SOUTHWEST PASS   2200   91 87  100/ 10/ 12 1017.5
NEW CANAL        2200   89 87   80/  6/ 13 1016.0
SHELL BEACH      2200   86 88  150/  9/ 10 1016.7

OFFSHORE STATIONS

STATION/POSITION TIME  TEMP    WIND        PRES    WAVE
                       AIR SEA DIR/SP/G            HT/PER
                 (UTC) (F)     (DEG/KT/KT) (MB)    (FT/S)
64 S DAUPHIN ISL 2250   84 87   80/  8/ 10 1017.2    2/ 6

$$



USA.gov is the U.S. government's official web portal to all federal, state and local government web resources and services.